FW7612 Weather Reports


time (UTC)temp
C
wind
direction
speed
KPH
gust
KPH
rain 1hr
cm
rain 24hr
cm
rain mn
cm
humidity
%
barometer
mb
20260507081601 12 192 4.8 9.7 0.00 0.00 0.00 95 1005.1
20260507081101 12 180 3.2 9.7 0.00 0.00 0.00 95 1005.2
20260507080601 12 199 4.8 8.0 0.00 0.00 0.00 95 1005.2
20260507075601 12 187 3.2 8.0 0.00 0.00 0.00 95 1005.3
20260507075101 12 204 4.8 8.0 0.00 0.00 0.00 95 1005.3
20260507074601 12 199 6.4 11.3 0.00 0.00 0.00 95 1005.3
20260507074101 12 218 4.8 9.7 0.00 0.00 0.00 95 1005.4
20260507073601 12 211 6.4 12.9 0.00 0.00 0.00 95 1005.6
20260507073101 12 216 8.0 16.1 0.00 0.00 0.00 95 1005.6
20260507072601 12 209 8.0 11.3 0.00 0.00 0.00 94 1005.6
20260507072101 12 213 4.8 11.3 0.00 0.00 0.00 94 1005.7
20260507071601 12 204 6.4 12.9 0.00 0.00 0.00 95 1005.8
20260507071101 12 210 6.4 11.3 0.00 0.00 0.00 95 1006.0
20260507070601 12 217 6.4 14.5 0.00 0.00 0.00 95 1006.2
20260507070101 12 236 6.4 9.7 0.00 0.00 0.00 95 1006.0
20260507065601 12 198 3.2 6.4 0.00 0.00 0.00 94 1005.8
20260507065101 12 203 4.8 8.0 0.00 0.00 0.00 94 1005.7
20260507064601 12 183 1.6 4.8 0.00 0.00 0.00 94 1005.7
20260507064101 12 221 4.8 8.0 0.00 0.00 0.00 94 1005.8
20260507063601 12 227 3.2 9.7 0.00 0.00 0.00 94 1005.9
20260507063101 12 221 4.8 12.9 0.00 0.00 0.00 94 1005.9
20260507062601 12 222 8.0 16.1 0.00 0.00 0.00 94 1006.0
20260507062101 12 213 8.0 16.1 0.00 0.00 0.00 94 1005.9
20260507061601 12 232 11.3 17.7 0.00 0.00 0.00 94 1006.1
20260507061102 12 219 11.3 17.7 0.00 0.00 0.00 94 1005.8
20260507060601 12 233 9.7 19.3 0.00 0.00 0.00 94 1006.1
20260507060101 12 244 9.7 22.5 0.00 0.00 0.00 94 1006.2
20260507055601 12 216 11.3 25.7 0.00 0.00 0.00 94 1005.8
20260507055101 12 215 11.3 22.5 0.00 0.00 0.00 94 1005.9
20260507054702 12 219 11.3 22.5 0.00 0.00 0.00 94 1006.1
20260507054101 12 211 14.5 25.7 0.00 0.00 0.00 94 1006.2
20260507053601 12 215 11.3 24.1 0.00 0.00 0.00 94 1006.2
20260507053100 12 216 14.5 29.0 0.00 0.00 0.00 94 1006.3
20260507052601 12 215 14.5 25.7 0.00 0.00 0.00 94 1006.5
20260507052100 12 229 14.5 33.8 0.00 0.00 0.00 94 1006.6
20260507051601 12 232 17.7 35.4 0.00 0.00 0.00 94 1006.7
20260507051101 13 228 17.7 30.6 0.00 0.00 0.00 94 1006.9
20260507050601 13 222 14.5 27.4 0.00 0.00 0.00 94 1006.8
20260507050100 13 223 12.9 30.6 0.00 0.00 0.00 94 1006.5
20260507045601 13 222 19.3 32.2 0.00 0.00 0.00 94 1006.6
20260507045100 13 225 16.1 32.2 0.00 0.00 0.00 94 1006.6
20260507044601 13 224 19.3 33.8 0.00 0.00 0.00 94 1006.7
20260507044101 13 231 17.7 32.2 0.00 0.00 0.00 94 1006.7
20260507043601 13 236 19.3 38.6 0.00 0.00 0.00 94 1006.8
20260507043101 13 233 22.5 35.4 0.00 0.00 0.00 94 1006.8
20260507042601 13 235 22.5 41.8 0.00 0.00 0.00 94 1006.8
20260507042101 13 237 20.9 35.4 0.00 0.00 0.00 93 1007.0
20260507041602 13 232 19.3 37.0 0.00 0.00 0.00 94 1007.1
20260507041102 13 237 24.1 43.5 0.00 0.00 0.00 94 1007.1
20260507040602 13 237 17.7 32.2 0.00 0.00 0.00 94 1007.3
20260507035602 13 226 14.5 30.6 0.00 0.00 0.00 94 1007.1
20260507035102 13 224 14.5 33.8 0.00 0.00 0.00 94 1007.0
20260507034602 13 220 16.1 37.0 0.00 0.00 0.00 93 1007.1
20260507034102 13 220 14.5 37.0 0.00 0.00 0.00 94 1007.1
20260507033602 13 218 19.3 38.6 0.00 0.00 0.00 94 1007.1
20260507033102 13 223 17.7 33.8 0.00 0.00 0.00 93 1007.2
20260507032602 13 224 19.3 37.0 0.00 0.00 0.00 93 1007.0
20260507032102 13 223 17.7 37.0 0.00 0.00 0.00 93 1007.0
20260507031602 13 222 14.5 30.6 0.00 0.00 0.00 93 1006.8
20260507031102 13 224 17.7 40.2 0.00 0.00 0.00 93 1006.9
20260507030602 13 219 17.7 33.8 0.00 0.00 0.00 93 1006.7
20260507025600 13 218 17.7 38.6 0.00 0.00 0.00 93 1006.8
20260507025102 13 222 16.1 33.8 0.00 0.00 0.00 93 1007.0
20260507024602 13 220 19.3 37.0 0.00 0.00 0.00 93 1007.1
20260507024102 13 220 22.5 38.6 0.00 0.00 0.00 93 1007.3
20260507023601 13 219 19.3 35.4 0.00 0.00 0.00 93 1007.5
20260507023102 13 218 22.5 35.4 0.00 0.00 0.00 93 1007.5
20260507022602 13 223 17.7 40.2 0.00 0.00 0.00 94 1007.6
20260507022102 13 228 17.7 37.0 0.00 0.00 0.00 93 1007.6
20260507021602 13 226 17.7 33.8 0.00 0.00 0.00 94 1007.8
20260507021102 13 227 22.5 38.6 0.00 0.00 0.00 94 1007.9
20260507020602 13 221 16.1 37.0 0.00 0.00 0.00 94 1007.8
20260507020108 13 219 20.9 38.6 0.00 0.00 0.00 94 1007.7
20260507015602 13 227 19.3 37.0 0.00 0.00 0.00 94 1007.9
20260507015100 13 230 19.3 37.0 0.00 0.00 0.00 94 1007.9
20260507014602 13 219 22.5 41.8 0.00 0.00 0.00 94 1008.0
20260507014102 13 222 16.1 56.3 0.00 0.00 0.00 94 1008.1
20260507013602 13 220 19.3 45.1 0.00 0.00 0.00 94 1008.0
20260507013102 13 228 19.3 51.5 0.00 0.00 0.00 94 1008.1
20260507012602 13 227 24.1 46.7 0.00 0.00 0.00 94 1008.0
20260507012102 13 215 19.3 51.5 0.00 0.00 0.00 94 1007.7
20260507011602 13 217 22.5 45.1 0.00 0.00 0.00 94 1007.9
20260507011100 13 220 24.1 46.7 0.00 0.00 0.00 94 1008.0
20260507010602 13 224 16.1 46.7 0.00 0.00 0.00 94 1008.0
20260507010101 13 214 14.5 37.0 0.00 0.00 0.00 94 1007.9
20260507005602 13 222 25.7 48.3 0.00 0.00 0.00 94 1008.0
20260507005100 13 208 16.1 41.8 0.00 0.00 0.00 94 1008.0
20260507004602 13 214 16.1 46.7 0.00 0.00 0.00 93 1008.0
20260507004101 13 214 20.9 48.3 0.00 0.00 0.00 94 1008.0
20260507003601 13 215 20.9 43.5 0.00 0.00 0.00 93 1008.0
20260507003101 13 216 20.9 41.8 0.00 0.00 0.00 93 1008.1
20260507002602 13 208 27.4 48.3 0.00 0.00 0.00 93 1007.9
20260507002101 13 204 20.9 38.6 0.00 0.00 0.00 93 1007.9
20260507001602 13 211 17.7 41.8 0.00 0.00 0.00 93 1008.0
20260507001100 13 211 12.9 48.3 0.00 0.00 0.00 93 1007.9
20260507000602 13 222 19.3 40.2 0.00 0.00 0.00 93 1008.1
20260507000101 13 209 19.3 51.5 0.00 0.00 0.00 92 1007.8
20260506235601 13 205 16.1 53.1 0.00 0.00 0.00 92 1007.9
20260506235101 13 202 19.3 51.5 0.00 0.00 0.00 92 1007.6
20260506234601 13 207 19.3 46.7 0.00 0.00 0.00 92 1008.0
20260506234101 13 213 20.9 48.3 0.00 0.00 0.00 92 1008.1
20260506233602 13 214 20.9 45.1 0.00 0.00 0.00 91 1008.3
20260506233101 13 211 16.1 37.0 0.00 0.00 0.00 91 1008.4
20260506232601 13 207 17.7 41.8 0.00 0.00 0.00 91 1008.4
20260506232100 13 210 20.9 46.7 0.00 0.00 0.00 91 1008.4
20260506231600 13 207 19.3 41.8 0.00 0.00 0.00 90 1008.5
20260506231100 13 209 17.7 43.5 0.00 0.00 0.00 90 1008.5
20260506230600 13 211 16.1 40.2 0.00 0.00 0.00 90 1008.5
20260506230100 13 211 12.9 30.6 0.00 0.00 0.00 89 1008.5
20260506225600 13 213 22.5 41.8 0.00 0.00 0.00 89 1008.9
20260506225059 13 209 20.9 48.3 0.00 0.00 0.00 88 1008.7
20260506224600 13 210 19.3 51.5 0.00 0.00 0.00 87 1008.9
20260506224100 14 212 20.9 43.5 0.00 0.00 0.00 85 1008.9
20260506223600 14 211 19.3 38.6 0.00 0.00 0.00 85 1008.8
20260506223100 14 216 16.1 37.0 0.00 0.00 0.00 84 1008.7
20260506222600 15 211 14.5 41.8 0.00 0.00 0.00 83 1008.6
20260506222100 15 203 19.3 40.2 0.00 0.00 0.00 83 1008.6
20260506221600 15 210 22.5 49.9 0.00 0.00 0.00 82 1008.6
20260506221100 15 204 24.1 48.3 0.00 0.00 0.00 82 1008.5
20260506220600 15 212 20.9 51.5 0.00 0.00 0.00 82 1008.7
20260506220100 15 202 20.9 51.5 0.00 0.00 0.00 82 1008.7
20260506215600 15 199 16.1 48.3 0.00 0.00 0.00 82 1008.8
20260506215100 15 214 25.7 45.1 0.00 0.00 0.00 83 1008.7
20260506214600 14 206 17.7 54.7 0.00 0.00 0.00 83 1008.8
20260506214100 15 202 20.9 56.3 0.00 0.00 0.00 82 1009.3
20260506213600 15 214 22.5 48.3 0.00 0.00 0.00 82 1009.0
20260506213100 15 215 17.7 48.3 0.00 0.00 0.00 81 1009.1
20260506212601 15 212 20.9 48.3 0.00 0.00 0.00 80 1009.1
20260506212059 15 207 16.1 45.1 0.00 0.00 0.00 80 1009.2
20260506211559 15 216 25.7 54.7 0.00 0.00 0.00 81 1008.9
20260506211100 15 213 30.6 51.5 0.00 0.00 0.00 81 1008.6
20260506210559 15 211 22.5 53.1 0.00 0.00 0.00 81 1008.8
20260506210059 15 214 19.3 45.1 0.00 0.00 0.00 81 1008.9
20260506205559 15 210 17.7 59.5 0.00 0.00 0.00 81 1009.0
20260506205100 15 213 27.4 48.3 0.00 0.00 0.00 81 1009.2
20260506204600 15 207 25.7 56.3 0.00 0.00 0.00 81 1009.2
20260506204059 15 214 29.0 57.9 0.00 0.00 0.00 80 1009.1
20260506203600 15 210 24.1 49.9 0.00 0.00 0.00 80 1009.3
20260506203100 15 201 22.5 51.5 0.00 0.00 0.00 79 1009.3
20260506202600 15 209 20.9 48.3 0.00 0.00 0.00 79 1009.2
20260506202059 15 209 20.9 41.8 0.00 0.00 0.00 79 1009.6
20260506201600 15 212 25.7 49.9 0.00 0.00 0.00 80 1009.6
20260506201059 15 216 19.3 46.7 0.00 0.00 0.00 80 1009.5
20260506200559 15 211 22.5 51.5 0.00 0.00 0.00 79 1009.7
20260506200059 15 205 22.5 49.9 0.00 0.00 0.00 79 1009.6
20260506195559 15 212 24.1 53.1 0.00 0.00 0.00 79 1009.9
20260506195059 15 208 17.7 57.9 0.00 0.00 0.00 79 1009.8
20260506194601 15 210 20.9 54.7 0.00 0.00 0.00 79 1009.7
20260506194100 15 213 22.5 53.1 0.00 0.00 0.00 79 1009.8
20260506193600 15 214 24.1 45.1 0.00 0.00 0.00 79 1010.0
20260506193059 15 216 24.1 56.3 0.00 0.00 0.00 79 1009.8
20260506192559 15 210 25.7 53.1 0.00 0.00 0.00 79 1009.8
20260506192059 15 207 24.1 48.3 0.00 0.00 0.00 79 1009.7
20260506191559 15 212 25.7 59.5 0.00 0.00 0.00 78 1009.9
20260506191059 16 209 22.5 53.1 0.00 0.00 0.00 77 1009.9
20260506190559 16 204 16.1 51.5 0.00 0.00 0.00 78 1010.0
20260506190100 16 210 20.9 53.1 0.00 0.00 0.00 78 1010.2
20260506185559 16 208 24.1 54.7 0.00 0.00 0.00 77 1010.1
20260506185101 16 201 19.3 46.7 0.00 0.00 0.00 77 1010.2
20260506184559 16 209 20.9 56.3 0.00 0.00 0.00 77 1010.6
20260506184059 16 214 24.1 49.9 0.00 0.00 0.00 76 1010.6
20260506183559 16 206 20.9 43.5 0.00 0.00 0.00 76 1010.6
20260506183059 16 201 17.7 53.1 0.00 0.00 0.00 76 1010.5
20260506182559 16 208 22.5 51.5 0.00 0.00 0.00 75 1010.9
20260506182100 17 201 27.4 48.3 0.00 0.00 0.00 73 1011.1
20260506181559 17 201 17.7 46.7 0.00 0.00 0.00 73 1011.1
20260506181059 17 212 25.7 56.3 0.00 0.00 0.00 72 1011.2
20260506180559 18 219 29.0 56.3 0.00 0.00 0.00 70 1011.3
20260506180059 18 210 29.0 57.9 0.00 0.00 0.00 70 1011.4
20260506175600 18 200 16.1 59.5 0.00 0.00 0.00 72 1011.2
20260506175100 17 209 22.5 56.3 0.00 0.00 0.00 72 1011.3
20260506174600 17 218 33.8 61.2 0.00 0.00 0.00 72 1011.3
20260506174059 17 208 20.9 57.9 0.00 0.00 0.00 72 1011.1
20260506173601 18 205 24.1 48.3 0.00 0.00 0.00 71 1011.0
20260506173100 17 206 20.9 46.7 0.00 0.00 0.00 74 1011.1
20260506172559 16 214 25.7 46.7 0.00 0.00 0.00 76 1011.4
20260506172059 16 208 22.5 45.1 0.00 0.00 0.00 75 1011.4
20260506171600 16 211 19.3 53.1 0.00 0.00 0.00 75 1011.4
20260506171100 16 214 24.1 48.3 0.00 0.00 0.00 75 1011.5
20260506170559 16 207 17.7 46.7 0.00 0.00 0.00 76 1011.6
20260506170059 16 208 24.1 57.9 0.00 0.00 0.00 76 1011.6
20260506165559 16 206 17.7 51.5 0.00 0.00 0.00 76 1011.8
20260506165059 16 209 19.3 48.3 0.00 0.00 0.00 75 1011.8
20260506164559 16 201 20.9 56.3 0.00 0.00 0.00 75 1012.0
20260506164059 17 214 27.4 54.7 0.00 0.00 0.00 73 1011.9
20260506163559 17 213 29.0 61.2 0.00 0.00 0.00 72 1012.0
20260506163059 18 211 24.1 43.5 0.00 0.00 0.00 72 1012.0
20260506162559 18 212 17.7 43.5 0.00 0.00 0.00 71 1012.1
20260506162100 18 206 19.3 51.5 0.00 0.00 0.00 71 1011.9
20260506161559 17 206 22.5 49.9 0.00 0.00 0.00 73 1012.2
20260506161059 17 212 17.7 53.1 0.00 0.00 0.00 74 1012.4
20260506160559 17 208 20.9 49.9 0.00 0.00 0.00 73 1012.4
20260506160059 17 214 25.7 53.1 0.00 0.00 0.00 73 1012.5
20260506155559 18 211 32.2 66.0 0.00 0.00 0.00 71 1012.4
20260506155059 17 218 22.5 57.9 0.00 0.00 0.00 73 1012.5
20260506154559 17 213 29.0 66.0 0.00 0.00 0.00 73 1012.8
20260506154059 17 216 25.7 57.9 0.00 0.00 0.00 74 1012.7
20260506153559 17 223 33.8 57.9 0.00 0.00 0.00 73 1012.7
20260506153100 17 216 24.1 51.5 0.00 0.00 0.00 74 1012.6
20260506152559 17 216 29.0 64.4 0.00 0.00 0.00 74 1012.7
20260506152059 17 217 30.6 56.3 0.00 0.00 0.00 73 1012.8
20260506151559 17 210 22.5 48.3 0.00 0.00 0.00 74 1012.8
20260506151059 17 202 16.1 45.1 0.00 0.00 0.00 75 1012.8
20260506150559 17 215 17.7 48.3 0.00 0.00 0.00 75 1012.8
20260506150059 17 219 29.0 48.3 0.00 0.00 0.00 73 1012.9
20260506145600 17 213 22.5 49.9 0.00 0.00 0.00 75 1012.7
20260506145059 17 212 25.7 57.9 0.00 0.00 0.00 75 1012.8
20260506144559 17 206 17.7 41.8 0.00 0.00 0.00 75 1012.6
20260506144059 17 212 17.7 43.5 0.00 0.00 0.00 73 1012.5
20260506143559 17 199 20.9 43.5 0.00 0.00 0.00 73 1012.7
20260506143100 17 212 33.8 61.2 0.00 0.00 0.00 71 1012.9
20260506142558 17 215 22.5 46.7 0.00 0.00 0.00 74 1012.7
20260506142059 17 217 29.0 56.3 0.00 0.00 0.00 74 1012.8
20260506141559 17 216 27.4 53.1 0.00 0.00 0.00 74 1012.9
20260506141059 17 210 20.9 53.1 0.00 0.00 0.00 75 1013.4
20260506140600 17 216 30.6 57.9 0.00 0.00 0.00 74 1013.0
20260506140059 17 216 24.1 49.9 0.00 0.00 0.00 74 1012.9
20260506135559 17 218 24.1 41.8 0.00 0.00 0.00 74 1012.9
20260506135058 17 225 24.1 48.3 0.00 0.00 0.00 76 1012.9
20260506134559 17 219 20.9 49.9 0.00 0.00 0.00 75 1012.9
20260506134059 17 207 24.1 48.3 0.00 0.00 0.00 75 1012.7
20260506133558 16 220 24.1 49.9 0.00 0.00 0.00 76 1012.7
20260506133059 16 221 25.7 59.5 0.00 0.00 0.00 76 1012.7
20260506132459 16 221 24.1 46.7 0.00 0.00 0.00 76 1012.6
20260506131959 16 214 20.9 46.7 0.00 0.00 0.00 76 1012.7
20260506131459 16 210 16.1 45.1 0.00 0.00 0.00 77 1012.6
20260506130958 16 213 22.5 46.7 0.00 0.00 0.00 76 1012.7
20260506130459 16 213 17.7 53.1 0.00 0.00 0.00 77 1012.7
20260506130000 16 218 22.5 46.7 0.00 0.00 0.00 78 1012.9
20260506125459 16 218 22.5 48.3 0.00 0.00 0.00 77 1012.6
20260506124959 16 213 22.5 43.5 0.00 0.00 0.00 77 1012.7
20260506124458 16 215 19.3 45.1 0.00 0.00 0.00 78 1012.8
20260506123959 16 218 20.9 46.7 0.00 0.00 0.00 78 1012.8
20260506123458 16 217 25.7 45.1 0.00 0.00 0.00 78 1012.7
20260506122959 16 209 22.5 54.7 0.00 0.00 0.00 80 1012.8
20260506122458 15 204 17.7 43.5 0.00 0.00 0.00 80 1013.0
20260506121958 15 206 25.7 46.7 0.00 0.00 0.00 80 1012.9
20260506121458 15 209 22.5 45.1 0.00 0.00 0.00 82 1013.1
20260506120959 15 216 19.3 38.6 0.00 0.00 0.00 83 1013.2
20260506120458 14 213 20.9 51.5 0.00 0.00 0.00 83 1013.2
20260506115958 15 212 22.5 43.5 0.00 0.00 0.00 82 1013.1
20260506115459 15 217 17.7 40.2 0.00 0.00 0.00 82 1013.2
20260506114958 15 217 22.5 40.2 0.00 0.00 0.00 81 1013.1
20260506114500 15 210 16.1 46.7 0.00 0.00 0.00 81 1013.1
20260506113959 15 210 20.9 48.3 0.00 0.00 0.00 82 1013.2
20260506113459 15 214 20.9 45.1 0.00 0.00 0.00 81 1013.3
20260506112959 15 216 27.4 46.7 0.00 0.00 0.00 81 1013.1
20260506112459 15 208 19.3 46.7 0.00 0.00 0.00 82 1013.0
20260506111959 15 212 20.9 46.7 0.00 0.00 0.00 82 1013.1
20260506111459 15 218 24.1 43.5 0.00 0.00 0.00 82 1013.2
20260506110959 15 216 17.7 41.8 0.00 0.00 0.00 83 1013.2
20260506110458 15 209 20.9 41.8 0.00 0.00 0.00 84 1013.1
20260506105959 14 206 17.7 41.8 0.00 0.00 0.00 85 1013.1
20260506105458 14 217 19.3 40.2 0.00 0.00 0.00 85 1013.1
20260506104959 14 210 17.7 48.3 0.00 0.00 0.00 85 1013.1
20260506104458 14 213 19.3 49.9 0.00 0.00 0.00 85 1013.0
20260506103959 14 215 16.1 48.3 0.00 0.00 0.00 85 1012.9
20260506103458 14 211 17.7 41.8 0.00 0.00 0.00 85 1012.9
20260506102958 14 211 22.5 49.9 0.00 0.00 0.00 85 1012.9
20260506102458 14 215 20.9 57.9 0.00 0.00 0.00 86 1012.8
20260506101959 14 210 16.1 43.5 0.00 0.00 0.00 86 1012.9
20260506101458 13 213 20.9 45.1 0.00 0.00 0.00 87 1012.9
20260506101018 13 209 17.7 41.8 0.00 0.00 0.00 87 1013.1
20260506100458 13 207 12.9 43.5 0.00 0.00 0.00 88 1012.9
20260506095958 13 207 20.9 43.5 0.00 0.00 0.00 88 1012.8
20260506095458 13 210 20.9 38.6 0.00 0.00 0.00 88 1012.9
20260506094958 13 212 19.3 41.8 0.00 0.00 0.00 88 1012.9
20260506094459 13 211 17.7 41.8 0.00 0.00 0.00 88 1013.1
20260506093958 13 218 17.7 38.6 0.00 0.00 0.00 88 1013.0
20260506093458 13 223 20.9 41.8 0.00 0.00 0.00 88 1013.0
20260506092958 13 217 19.3 45.1 0.00 0.00 0.00 88 1013.0
20260506092458 13 215 17.7 41.8 0.00 0.00 0.00 88 1013.1
20260506091958 13 218 19.3 46.7 0.00 0.00 0.00 88 1013.0
20260506091458 13 223 20.9 37.0 0.00 0.00 0.00 88 1013.0
20260506090958 13 219 20.9 41.8 0.00 0.00 0.00 88 1012.9
20260506090458 13 223 19.3 38.6 0.00 0.00 0.00 88 1013.2
20260506085958 13 210 20.9 49.9 0.00 0.00 0.00 88 1013.1
20260506085457 13 214 25.7 48.3 0.00 0.00 0.00 88 1012.8
20260506084957 13 220 17.7 45.1 0.00 0.00 0.00 88 1013.1
20260506084458 13 217 17.7 48.3 0.00 0.00 0.00 88 1013.2
20260506083957 13 217 19.3 38.6 0.00 0.00 0.00 88 1012.9
20260506083457 13 219 22.5 45.1 0.00 0.00 0.00 88 1013.1
20260506082958 13 222 20.9 45.1 0.00 0.00 0.00 88 1013.0
20260506082458 13 222 16.1 46.7 0.00 0.00 0.00 87 1013.0
20260506081958 13 213 22.5 45.1 0.00 0.00 0.00 88 1013.0